Ogden, UT

3:40 AM MDT on June 28, 2017 (GMT -0600)
Ogden-Hinckley

Weather History for KOGD - March, 2014

Change the Weather History Date:

Thursday, March 6, 2014

  Actual Average Record
Temperature  
Mean Temperature 46 °F -  
Max Temperature 54 °F 49 °F 69 °F (1987)
Min Temperature 39 °F 29 °F 4 °F (1945)
Degree Days  
Heating Degree Days 18    
Moisture  
Dew Point 31 °F    
Average Humidity 57    
Maximum Humidity 89    
Minimum Humidity 31    
Precipitation  
Precipitation 0.11 in - - ()
Sea Level Pressure  
Sea Level Pressure 29.91 in    
Wind  
Wind Speed 8 mph (South)    
Max Wind Speed 16 mph    
Max Gust Speed 28 mph    
Visibility 10 miles    
Events Rain    
Averages and records for this station are not official NWS values.
T = Trace of Precipitation, MM = Missing Value Source: NWS Daily Summary

Daily Weather History Graph

Daily Weather History Graph

Search for Another Location

Airport or City:

Trip Planner

Search our weather history database for the weather conditions in past years. The results will help you decide how hot, cold, wet, or windy it might be!

Date:

Astronomy

Mar. 06, 2014 Rise Set
Actual Time 6:54 AM MST 6:24 PM MST
Civil Twilight 6:26 AM MST 6:52 PM MST
Nautical Twilight 5:54 AM MST 7:24 PM MST
Astronomical Twilight 5:22 AM MST 7:56 PM MST
Moon 10:01 AM MST (3/6) No Moon Set
Length of Visible Light 12h 25m
Length of Day
11h 30m
Waxing Crescent, 33% of the Moon is Illuminated
Mar 6
Waxing Crescent
Mar 8
First Quarter
Mar 16
Full
Mar 23
Last Quarter
Mar 30
New

Hourly Weather History & Observations

Time (MST) Temp. Windchill Dew Point Humidity Pressure Visibility Wind Dir Wind Speed Gust Speed Precip Events Conditions
12:53 AM 45.0 °F 40.1 °F 28.9 °F 53% 29.96 in 10.0 mi SSE 9.2 mph - N/A   Clear
1:53 AM 46.0 °F 40.6 °F 27.0 °F 47% 29.95 in 10.0 mi SSE 11.5 mph - N/A   Clear
2:53 AM 45.0 °F 39.7 °F 27.0 °F 49% 29.93 in 10.0 mi SSE 10.4 mph - N/A   Clear
3:53 AM 44.1 °F 40.1 °F 27.0 °F 51% 29.92 in 10.0 mi South 6.9 mph - N/A   Clear
4:53 AM 43.0 °F 38.2 °F 28.0 °F 56% 29.93 in 10.0 mi SSE 8.1 mph - N/A   Partly Cloudy
5:53 AM 46.9 °F - 24.1 °F 41% 29.91 in 10.0 mi SSE 10.4 mph - N/A   Clear
6:53 AM 48.0 °F - 23.0 °F 37% 29.90 in 10.0 mi SSE 4.6 mph - N/A   Partly Cloudy
7:53 AM 48.9 °F - 23.0 °F 36% 29.88 in 10.0 mi Calm Calm - N/A   Clear
8:53 AM 52.0 °F - 21.9 °F 31% 29.89 in 10.0 mi WSW 16.1 mph 23.0 mph N/A   Overcast
9:00 AM 51.1 °F - 23.0 °F 33% 29.97 in 10.0 mi SW 13.8 mph 23.0 mph N/A   Overcast
9:53 AM 51.1 °F - 25.0 °F 36% 29.95 in 10.0 mi Variable 3.5 mph - N/A   Overcast
10:53 AM 52.0 °F - 26.1 °F 37% 29.93 in 10.0 mi East 4.6 mph - N/A   Overcast
11:53 AM 52.0 °F - 28.9 °F 41% 29.93 in 10.0 mi WNW 10.4 mph 18.4 mph 0.00 in Rain Light Rain
12:53 PM 50.0 °F - 37.9 °F 63% 29.90 in 10.0 mi East 8.1 mph - 0.01 in   Overcast
1:53 PM 53.1 °F - 34.0 °F 48% 29.85 in 10.0 mi ESE 6.9 mph - 0.00 in   Overcast
2:53 PM 54.0 °F - 32.0 °F 43% 29.80 in 10.0 mi SSE 9.2 mph - N/A   Mostly Cloudy
3:53 PM 51.1 °F - 37.0 °F 59% 29.85 in 6.0 mi WSW 15.0 mph 27.6 mph 0.01 in Rain Light Rain
4:53 PM 46.9 °F - 41.0 °F 80% 29.86 in 10.0 mi East 5.8 mph - 0.06 in   Overcast
5:53 PM 46.9 °F - 39.9 °F 77% 29.87 in 10.0 mi WSW 3.5 mph - 0.01 in Rain Light Rain
6:53 PM 44.1 °F 40.8 °F 39.9 °F 85% 29.90 in 10.0 mi NNW 5.8 mph - 0.02 in Rain Light Rain
7:53 PM 44.1 °F - 39.0 °F 82% 29.90 in 10.0 mi Calm Calm - 0.00 in   Mostly Cloudy
8:53 PM 43.0 °F - 39.0 °F 86% 29.89 in 10.0 mi Calm Calm - N/A   Partly Cloudy
9:53 PM 41.0 °F 38.0 °F 37.0 °F 86% 29.92 in 10.0 mi West 4.6 mph - N/A   Clear
10:53 PM 39.9 °F 36.7 °F 37.0 °F 89% 29.92 in 10.0 mi NW 4.6 mph - N/A   Scattered Clouds
11:53 PM 39.9 °F 37.8 °F 37.0 °F 89% 29.95 in 10.0 mi North 3.5 mph - N/A   Overcast